| time (UTC) | temp C | wind direction | speed KPH | gust KPH | rain 1hr cm | rain 24hr cm | rain mn cm | humidity % | barometer mb |
| 20260503181004 | 13 | 140 | 3.2 | 8.0 | 0.00 | 0.00 | 0.00 | 74 | 1026.8 |
| 20260503180025 | 13 | 140 | 1.6 | 4.8 | 0.00 | 0.00 | 0.00 | 74 | 1026.8 |
| 20260503175025 | 13 | 134 | 3.2 | 8.0 | 0.00 | 0.00 | 0.00 | 73 | 1026.8 |
| 20260503174004 | 13 | 133 | 4.8 | 8.0 | 0.00 | 0.00 | 0.00 | 73 | 1026.9 |
| 20260503173004 | 13 | 142 | 3.2 | 8.0 | 0.00 | 0.00 | 0.00 | 74 | 1026.8 |
| 20260503172004 | 13 | 139 | 3.2 | 8.0 | 0.00 | 0.00 | 0.00 | 74 | 1026.9 |
| 20260503171004 | 13 | 139 | 3.2 | 8.0 | 0.00 | 0.00 | 0.00 | 74 | 1026.9 |
| 20260503151004 | 13 | 146 | 3.2 | 8.0 | 0.00 | 0.00 | 0.00 | 76 | 1026.6 |
| 20260503131004 | 14 | 155 | 0.0 | 1.6 | 0.00 | 0.00 | 0.00 | 85 | 1026.2 |
| 20260503081004 | 19 | 147 | 6.4 | 17.7 | 0.00 | 0.00 | 0.00 | 56 | 1024.7 |
| 20260503072004 | 19 | 150 | 8.0 | 19.3 | 0.00 | 0.00 | 0.00 | 58 | 1024.8 |
| 20260503071004 | 18 | 142 | 9.7 | 17.7 | 0.00 | 0.00 | 0.00 | 62 | 1024.6 |
| 20260503055004 | 18 | 136 | 6.4 | 16.1 | 0.00 | 0.00 | 0.00 | 64 | 1025.0 |
| 20260503054004 | 18 | 140 | 8.0 | 17.7 | 0.00 | 0.00 | 0.00 | 64 | 1025.1 |
| 20260503053004 | 18 | 133 | 8.0 | 16.1 | 0.00 | 0.00 | 0.00 | 65 | 1025.2 |
| 20260503052004 | 18 | 135 | 8.0 | 16.1 | 0.00 | 0.00 | 0.00 | 64 | 1025.2 |
| 20260503051004 | 18 | 107 | 6.4 | 14.5 | 0.00 | 0.00 | 0.00 | 62 | 1025.4 |
| 20260503050004 | 17 | 120 | 8.0 | 16.1 | 0.00 | 0.00 | 0.00 | 64 | 1025.5 |
| 20260503045004 | 17 | 141 | 6.4 | 17.7 | 0.00 | 0.00 | 0.00 | 65 | 1025.6 |
| 20260503044004 | 17 | 132 | 9.7 | 17.7 | 0.00 | 0.00 | 0.00 | 66 | 1025.8 |
| 20260503043004 | 17 | 117 | 8.0 | 16.1 | 0.00 | 0.00 | 0.00 | 67 | 1026.0 |
| 20260503042025 | 16 | 131 | 9.7 | 17.7 | 0.00 | 0.00 | 0.00 | 67 | 1026.2 |
| 20260503041004 | 16 | 138 | 9.7 | 17.7 | 0.00 | 0.00 | 0.00 | 68 | 1026.3 |
| 20260503040004 | 16 | 146 | 9.7 | 20.9 | 0.00 | 0.00 | 0.00 | 69 | 1026.4 |
| 20260503035025 | 17 | 140 | 8.0 | 19.3 | 0.00 | 0.00 | 0.00 | 68 | 1026.5 |
| 20260503034025 | 16 | 142 | 6.4 | 16.1 | 0.00 | 0.00 | 0.00 | 69 | 1026.7 |
| 20260503033025 | 16 | 150 | 8.0 | 20.9 | 0.00 | 0.00 | 0.00 | 71 | 1026.8 |
| 20260503032004 | 16 | 147 | 8.0 | 17.7 | 0.00 | 0.00 | 0.00 | 71 | 1026.8 |
| 20260503031003 | 16 | 142 | 9.7 | 17.7 | 0.00 | 0.00 | 0.00 | 72 | 1026.9 |
| 20260503030004 | 16 | 145 | 9.7 | 17.7 | 0.00 | 0.00 | 0.00 | 72 | 1026.9 |
| 20260503025004 | 15 | 150 | 9.7 | 17.7 | 0.00 | 0.00 | 0.00 | 72 | 1027.1 |
| 20260503024003 | 16 | 146 | 6.4 | 17.7 | 0.00 | 0.00 | 0.00 | 71 | 1027.2 |
| 20260503023003 | 16 | 136 | 6.4 | 12.9 | 0.00 | 0.00 | 0.00 | 72 | 1027.2 |
| 20260503022003 | 15 | 148 | 8.0 | 17.7 | 0.00 | 0.00 | 0.00 | 72 | 1027.3 |
| 20260503021003 | 15 | 144 | 6.4 | 14.5 | 0.00 | 0.00 | 0.00 | 72 | 1027.3 |
| 20260503020004 | 15 | 147 | 4.8 | 11.3 | 0.00 | 0.00 | 0.00 | 73 | 1027.3 |
| 20260503015025 | 15 | 135 | 4.8 | 12.9 | 0.00 | 0.00 | 0.00 | 74 | 1027.4 |
| 20260503014003 | 15 | 147 | 8.0 | 16.1 | 0.00 | 0.00 | 0.00 | 75 | 1027.3 |
| 20260503013003 | 15 | 150 | 9.7 | 17.7 | 0.00 | 0.00 | 0.00 | 74 | 1027.3 |
| 20260503012003 | 15 | 141 | 6.4 | 12.9 | 0.00 | 0.00 | 0.00 | 74 | 1027.4 |
| 20260503011024 | 14 | 136 | 4.8 | 9.7 | 0.00 | 0.00 | 0.00 | 73 | 1027.3 |
| 20260503010025 | 13 | 137 | 4.8 | 8.0 | 0.00 | 0.00 | 0.00 | 75 | 1027.3 |
| 20260503005003 | 13 | 137 | 4.8 | 9.7 | 0.00 | 0.00 | 0.00 | 76 | 1027.2 |
| 20260503004003 | 13 | 147 | 6.4 | 9.7 | 0.00 | 0.00 | 0.00 | 78 | 1027.2 |
| 20260503003003 | 12 | 147 | 4.8 | 9.7 | 0.00 | 0.00 | 0.00 | 78 | 1027.1 |
| 20260503002003 | 12 | 141 | 3.2 | 8.0 | 0.00 | 0.00 | 0.00 | 80 | 1027.1 |
| 20260503001003 | 11 | 144 | 4.8 | 8.0 | 0.00 | 0.00 | 0.00 | 82 | 1027.0 |
| 20260503000003 | 11 | 150 | 4.8 | 9.7 | 0.00 | 0.00 | 0.00 | 83 | 1027.0 |
| 20260502235003 | 10 | 148 | 4.8 | 8.0 | 0.00 | 0.00 | 0.00 | 84 | 1026.9 |
| 20260502234003 | 10 | 149 | 3.2 | 4.8 | 0.00 | 0.00 | 0.00 | 86 | 1026.8 |
| 20260502233003 | 10 | 131 | 1.6 | 4.8 | 0.00 | 0.00 | 0.00 | 86 | 1026.8 |
| 20260502232003 | 9 | 146 | 1.6 | 4.8 | 0.00 | 0.00 | 0.00 | 86 | 1026.6 |
| 20260502231003 | 9 | 128 | 1.6 | 3.2 | 0.00 | 0.00 | 0.00 | 87 | 1026.5 |
| 20260502230003 | 9 | 123 | 1.6 | 4.8 | 0.00 | 0.00 | 0.00 | 87 | 1026.3 |
| 20260502225003 | 9 | 139 | 1.6 | 3.2 | 0.00 | 0.00 | 0.00 | 86 | 1026.1 |
| 20260502224003 | 10 | 151 | 4.8 | 8.0 | 0.00 | 0.00 | 0.00 | 85 | 1026.1 |
| 20260502223004 | 10 | 151 | 4.8 | 8.0 | 0.00 | 0.00 | 0.00 | 85 | 1026.0 |
| 20260502222003 | 9 | 136 | 3.2 | 6.4 | 0.00 | 0.00 | 0.00 | 86 | 1025.9 |
| 20260502221003 | 9 | 117 | 3.2 | 4.8 | 0.00 | 0.00 | 0.00 | 86 | 1025.9 |
| 20260502220003 | 8 | 121 | 3.2 | 4.8 | 0.00 | 0.00 | 0.00 | 86 | 1025.9 |
| 20260502215003 | 8 | 116 | 1.6 | 3.2 | 0.00 | 0.00 | 0.00 | 86 | 1025.9 |
| 20260502214003 | 9 | 119 | 3.2 | 6.4 | 0.00 | 0.00 | 0.00 | 85 | 1025.9 |
| 20260502213003 | 9 | 126 | 1.6 | 4.8 | 0.00 | 0.00 | 0.00 | 85 | 1025.7 |
| 20260502212004 | 9 | 127 | 3.2 | 4.8 | 0.00 | 0.00 | 0.00 | 85 | 1025.6 |
| 20260502211003 | 9 | 119 | 4.8 | 8.0 | 0.00 | 0.00 | 0.00 | 84 | 1025.6 |
| 20260502210003 | 9 | 125 | 3.2 | 4.8 | 0.00 | 0.00 | 0.00 | 84 | 1025.6 |
| 20260502205003 | 10 | 127 | 3.2 | 6.4 | 0.00 | 0.00 | 0.00 | 84 | 1025.5 |
| 20260502204003 | 10 | 127 | 4.8 | 6.4 | 0.00 | 0.00 | 0.00 | 83 | 1025.4 |
| 20260502203003 | 10 | 122 | 3.2 | 6.4 | 0.00 | 0.00 | 0.00 | 84 | 1025.4 |
| 20260502202003 | 9 | 117 | 1.6 | 4.8 | 0.00 | 0.00 | 0.00 | 84 | 1025.4 |
| 20260502201024 | 10 | 116 | 1.6 | 1.6 | 0.00 | 0.00 | 0.00 | 84 | 1025.4 |
| 20260502200003 | 10 | 123 | 1.6 | 3.2 | 0.00 | 0.00 | 0.00 | 84 | 1025.4 |
| 20260502195024 | 10 | 113 | 1.6 | 3.2 | 0.00 | 0.00 | 0.00 | 83 | 1025.4 |
| 20260502194004 | 10 | 107 | 0.0 | 1.6 | 0.00 | 0.00 | 0.00 | 84 | 1025.4 |
| 20260502193004 | 10 | 105 | 0.0 | 3.2 | 0.00 | 0.00 | 0.00 | 82 | 1025.4 |
| 20260502192004 | 10 | 129 | 0.0 | 3.2 | 0.00 | 0.00 | 0.00 | 81 | 1025.4 |
| 20260502191004 | 10 | 119 | 0.0 | 1.6 | 0.00 | 0.00 | 0.00 | 81 | 1025.4 |
| 20260502190004 | 10 | 116 | 1.6 | 3.2 | 0.00 | 0.00 | 0.00 | 81 | 1025.4 |
| 20260502185004 | 10 | 123 | 3.2 | 4.8 | 0.00 | 0.00 | 0.00 | 81 | 1025.4 |
| 20260502184004 | 11 | 126 | 1.6 | 4.8 | 0.00 | 0.00 | 0.00 | 81 | 1025.4 |
| 20260502183025 | 11 | 119 | 0.0 | 1.6 | 0.00 | 0.00 | 0.00 | 81 | 1025.4 |
| 20260502182025 | 11 | 125 | 1.6 | 4.8 | 0.00 | 0.00 | 0.00 | 80 | 1025.4 |